Temperature
9 9 10 10 10 10 10 10 10 10 10 10 10 10 10 10 10 10 10 10 10 10 10 10 11 11 10 10 10 10 10 10 10 9 9 9 9 9 9 8 8 8 8
9 9 10 10 10 10 10 10 10 10 10 10 10 10 10 10 10 10 10 10 10 10 10 10 10 10 10 10 10 10 10 9 9 9 8 8 8 8 8 8 8 8 8
9 9 9 10 10 10 10 10 9 10 10 9 9 9 9 9 9 9 10 9 10 10 10 10 9 9 9 9 9 9 9 9 8 8 8 8 9 7 7 7 7 7 7
9 9 9 9 10 10 10 9 9 9 9 9 9 9 9 9 9 9 9 9 9 9 9 9 9 9 9 9 9 9 9 8 8 8 7 7 7 6 7 6 6 6 7
9 9 9 9 10 10 9 9 9 9 9 9 9 9 9 9 9 9 9 9 9 9 9 9 8 8 8 8 8 8 8 8 8 7 7 6 6 6 6 6 6 6 6
9 9 9 9 9 9 9 9 9 9 9 9 9 9 9 9 8 8 8 8 8 8 8 8 8 8 8 8 8 8 7 7 7 7 6 6 5 5 5 5 5 5 5
9 9 9 9 9 9 9 9 9 9 9 9 9 9 9 8 8 8 8 8 8 8 8 8 8 7 7 7 7 7 7 7 7 6 6 6 5 5 5 4 4 4 4
9 9 9 9 9 9 9 9 9 9 9 9 8 8 8 8 8 8 8 8 8 7 7 7 7 7 7 7 7 7 6 6 6 6 6 5 5 5 5 4 4 3 4
9 9 9 9 9 9 9 9 9 9 8 8 8 8 8 8 8 8 7 7 7 7 7 7 7 7 7 6 6 6 6 6 6 5 5 5 5 5 4 4 4 3 3
9 9 9 9 9 9 9 9 9 8 8 8 8 8 8 7 7 7 7 7 7 7 7 7 7 6 6 6 6 6 6 6 5 5 5 5 4 4 4 4 3 3 2
8 9 9 9 9 9 9 9 8 8 8 8 8 8 7 7 7 7 7 7 7 7 6 6 6 6 6 6 5 5 5 5 5 5 4 4 4 4 3 3 3 3 2
8 9 9 9 9 9 9 8 8 8 8 8 8 7 7 7 7 7 7 6 6 6 6 6 6 6 5 5 5 5 5 4 4 4 4 4 4 3 3 3 3 2 2
8 8 8 8 8 8 8 8 8 8 8 7 7 7 7 7 6 6 6 6 6 6 6 6 5 5 5 5 5 4 4 4 4 4 3 3 3 3 3 2 2 2 1
8 8 8 8 8 8 8 8 8 8 7 7 7 7 7 6 6 6 6 6 6 5 5 5 5 5 5 4 4 4 4 4 3 3 3 3 3 2 2 2 1 1 1
7 7 8 8 8 8 7 7 7 7 7 7 7 6 6 6 6 6 6 5 5 5 5 5 5 4 4 4 4 4 3 3 3 3 3 2 2 2 2 1 1 0 0
7 7 7 7 7 7 7 7 7 7 6 6 6 6 6 6 6 6 5 5 5 5 5 5 4 4 4 4 4 3 3 3 3 2 2 2 2 1 1 1 1 0 -0
7 7 7 7 7 7 7 6 6 6 6 6 6 6 6 5 5 5 5 5 5 4 4 4 4 4 4 3 3 3 3 2 2 2 2 1 1 1 1 0 0 -0 -1
7 7 6 6 6 6 6 6 6 5 5 5 5 5 5 5 5 5 5 4 4 4 4 4 4 3 3 3 3 2 2 2 2 2 1 1 1 1 0 -0 -1 -1 -1
6 6 6 6 6 6 5 5 5 5 5 5 5 5 4 4 4 4 4 4 4 4 3 3 3 3 3 3 2 2 2 1 1 1 1 1 0 0 -0 -1 -1 -1 -1
6 6 6 5 5 5 5 5 5 5 5 5 4 4 4 4 4 4 4 3 3 3 3 3 3 3 2 2 2 1 1 1 1 1 1 0 0 -0 -1 -1 -2 -2 -2
5 5 5 5 5 5 5 4 4 4 4 4 4 4 4 3 3 3 3 3 3 3 2 2 2 2 2 2 1 1 1 0 0 0 0 -0 -0 -1 -1 -2 -2 -2 -3
5 5 5 4 4 4 4 4 4 4 4 4 4 3 3 3 3 3 2 2 2 2 2 2 2 2 2 1 1 1 0 -0 -0 -0 -1 -1 -1 -1 -2 -2 -3 -3 -3
4 4 4 4 4 4 3 3 4 3 3 3 3 3 3 3 3 2 2 2 2 2 1 1 1 1 1 1 1 0 -0 -1 -1 -1 -1 -2 -2 -2 -2 -3 -3 -4 -4
4 4 4 3 3 3 3 3 3 3 3 3 3 3 2 2 2 2 2 1 1 1 1 1 1 0 0 0 -0 -1 -1 -1 -1 -2 -2 -2 -2 -3 -3 -3 -4 -4 -4
3 3 3 3 3 3 3 3 3 2 2 2 2 2 2 2 2 1 1 1 1 1 0 0 0 -0 -0 -0 -1 -1 -1 -2 -2 -2 -3 -3 -3 -3 -3 -4 -4 -4 -5
3 3 3 3 2 2 2 2 2 2 2 2 2 2 1 1 1 1 1 1 0 0 0 -0 -1 -1 -1 -1 -1 -1 -2 -2 -3 -3 -3 -3 -4 -4 -4 -4 -4 -4 -5
Wind_Speed
4 4 4 4 4 5 5 4 4 4 3 2 1 1 2 2 2 3 5 4 4 4 4 3 3 3 3 3 3 3 2 2 2 2 1 1 1 1 1 1 1 3 4
5 4 4 4 4 4 4 4 3 3 3 1 1 1 1 1 2 2 3 3 4 4 4 3 2 3 2 2 3 3 2 2 2 2 2 2 3 2 0 0 1 2 3
6 5 5 5 4 4 4 3 3 3 3 2 2 2 1 1 1 1 1 2 3 3 3 3 3 2 2 2 2 3 2 2 2 2 2 2 2 2 2 1 1 2 3
5 5 5 5 5 4 4 4 3 3 3 3 3 3 2 1 1 0 0 1 2 2 2 2 2 2 2 2 2 2 2 2 2 1 2 3 3 3 3 2 1 2 3
5 6 6 6 5 5 4 4 4 3 3 3 3 3 2 1 1 1 1 0 0 1 1 1 1 1 2 2 2 2 2 2 2 2 2 3 3 4 4 4 3 3 2
5 5 5 6 6 5 5 4 4 3 3 3 3 3 3 3 2 2 2 1 1 1 1 1 1 1 1 2 2 2 2 2 2 2 2 3 3 3 4 5 5 5 3
4 5 6 6 6 6 5 5 5 4 4 4 4 4 4 4 4 3 3 2 2 2 2 2 2 2 2 2 2 2 2 2 2 2 1 2 2 3 4 5 5 5 4
4 5 5 5 6 6 6 5 5 5 5 5 5 5 5 4 4 4 4 4 3 3 3 3 3 3 3 2 2 2 2 2 2 3 3 3 2 2 3 4 4 5 4
3 4 4 5 5 5 6 6 6 5 5 5 5 5 5 5 5 5 5 4 4 3 4 4 4 3 3 3 3 3 3 3 3 3 4 3 3 3 3 3 4 4 4
2 3 3 4 4 4 4 5 5 5 5 5 5 5 5 6 5 5 6 5 5 4 5 4 4 4 4 4 4 4 3 4 3 3 3 3 3 3 3 3 3 4 5
2 2 2 2 3 3 4 4 5 5 5 5 5 5 5 5 6 6 6 6 5 5 5 5 5 5 5 5 5 5 4 4 4 4 4 4 4 3 3 3 4 4 5
1 2 2 2 2 2 2 3 3 4 4 4 5 5 5 5 6 6 6 6 6 6 6 6 6 6 6 5 6 6 5 6 6 5 5 5 4 5 4 4 4 4 5
2 2 2 2 2 2 2 2 3 3 3 3 4 5 5 5 6 6 6 6 6 6 6 6 7 7 6 6 6 7 6 6 6 6 6 6 6 6 5 5 5 4 5
3 3 2 2 2 2 2 2 3 3 3 3 4 5 5 5 6 6 5 5 6 6 6 6 7 7 7 7 7 7 7 7 7 7 7 7 7 7 6 5 6 5 5
5 4 3 3 3 3 3 3 3 3 3 4 4 5 5 5 5 5 5 5 5 6 6 6 6 7 6 7 7 7 7 8 7 7 7 7 7 8 7 6 6 6 5
6 5 5 4 4 4 3 3 3 3 3 4 4 4 4 4 5 5 5 5 5 5 6 6 6 7 6 7 9 8 7 7 8 8 7 7 8 9 11 10 9 8 7
7 6 6 5 5 5 4 4 4 3 4 4 4 4 4 4 4 4 5 5 6 5 6 6 7 7 7 8 9 10 8 8 8 8 8 6 6 8 8 9 10 10 10
6 6 6 6 5 4 4 4 4 4 4 4 4 4 4 4 4 5 5 6 5 6 6 6 7 7 7 8 9 10 9 8 8 8 8 8 8 7 8 7 8 8 8
6 6 5 5 5 5 4 4 4 4 4 5 5 4 4 5 5 5 6 6 6 6 6 6 7 7 7 8 9 9 7 7 8 8 8 9 9 9 10 9 8 8 7
4 4 4 5 5 5 4 4 5 5 5 5 5 4 5 5 6 6 6 5 6 6 6 6 6 7 7 7 8 8 6 7 7 7 8 10 11 10 10 9 9 9 7
4 4 4 5 5 4 4 5 5 6 5 4 4 5 5 5 6 6 5 5 5 6 6 6 6 6 7 7 8 9 6 7 7 7 7 6 10 11 11 11 9 9 7
4 4 4 5 4 4 4 6 6 5 4 4 5 5 5 5 4 5 5 5 5 6 6 6 6 5 5 7 8 9 10 9 8 7 7 6 8 10 11 10 10 10 8
5 4 5 5 4 4 5 7 6 4 4 5 5 5 5 5 4 5 5 5 5 5 5 5 5 5 5 5 9 10 11 11 9 7 8 8 9 9 9 10 10 9 7
5 5 5 6 6 5 6 7 6 4 5 5 5 5 5 5 5 5 5 5 5 5 6 6 6 6 5 5 5 5 6 8 8 7 7 9 9 8 8 7 7 7 6
6 5 6 7 7 6 6 6 6 5 6 6 6 5 5 5 5 5 5 6 7 7 7 6 6 6 7 7 7 6 6 6 6 6 5 6 6 6 6 6 6 5 6
7 7 7 8 8 7 7 6 5 6 6 6 6 5 4 4 5 5 5 7 9 10 12 12 10 8 10 11 11 11 11 11 10 8 7 7 7 7 7 6 6 6 6
Wind_Direction
146 140 140 136 128 125 122 122 118 114 111 107 96 92 88 79 71 60 50 40 34 31 34 33 32 26 23 10 360 350 339 345 336 282 269 232 199 152 61 46 32 33 21
161 156 152 150 149 143 139 131 130 131 127 116 100 64 90 95 70 61 52 34 32 29 30 19 22 22 11 11 5 356 336 341 356 315 282 262 212 180 177 11 16 8 8
175 170 172 172 166 160 159 152 161 162 153 154 150 144 141 155 152 93 58 31 26 27 27 23 12 11 1 360 1 354 341 329 343 345 306 287 278 300 219 230 316 348 348
182 179 178 179 177 171 164 168 174 174 169 173 186 195 200 198 174 123 75 40 33 22 17 15 6 360 354 352 349 343 325 308 301 298 308 296 300 279 274 226 243 307 320
192 187 185 184 180 173 169 172 171 172 179 189 192 206 213 205 181 199 232 297 359 358 354 344 335 336 344 336 323 317 315 295 288 289 285 272 273 265 270 278 284 293 293
200 195 185 180 177 173 174 176 178 182 187 193 202 212 218 219 220 228 240 254 259 264 272 276 287 293 305 312 309 299 288 278 272 269 270 277 272 274 272 278 292 294 290
200 195 189 188 185 183 184 187 191 195 199 206 213 217 222 226 233 242 245 252 253 253 255 255 261 269 274 277 281 283 283 270 262 260 261 270 279 290 285 282 289 290 290
199 196 195 194 194 195 196 198 205 210 209 214 221 225 226 231 238 242 248 253 256 256 255 250 253 256 259 258 255 259 265 269 261 253 248 250 259 272 275 281 291 291 280
199 197 194 196 200 202 205 207 212 218 218 222 226 229 230 233 239 243 245 250 251 252 246 244 247 249 251 253 252 248 246 254 259 258 246 247 253 260 269 273 275 280 285
182 188 190 196 203 209 209 210 217 223 225 226 227 231 233 236 241 243 243 246 250 248 246 242 242 243 243 243 245 249 247 249 252 256 256 250 250 251 257 264 268 265 271
175 173 177 186 192 196 200 207 215 223 225 226 229 233 235 235 238 242 245 246 247 245 244 242 239 239 239 239 240 244 246 247 251 249 251 252 253 252 252 253 258 260 263
189 178 175 175 183 197 208 218 224 230 234 232 232 235 237 235 238 242 245 244 245 243 240 239 239 239 238 238 240 244 244 245 248 249 249 250 248 249 251 249 252 258 259
200 190 186 189 197 214 232 238 240 241 242 237 237 240 241 240 243 246 247 245 244 244 240 237 239 241 240 239 241 243 244 245 248 249 248 248 245 248 247 247 252 258 261
222 218 215 218 228 244 254 260 263 258 251 242 240 244 247 248 251 251 248 245 242 243 243 242 243 243 242 241 240 241 243 245 246 246 246 247 245 249 252 250 251 255 258
236 232 236 244 251 261 270 277 275 266 253 247 248 253 256 254 253 252 249 246 242 243 244 245 244 242 242 240 238 239 242 245 247 246 246 246 246 250 252 253 254 254 256
240 239 243 250 255 259 268 274 274 269 258 253 257 264 263 259 255 254 252 249 249 247 245 246 246 245 243 241 240 243 244 246 248 250 249 246 242 242 243 246 251 256 259
245 243 244 250 257 259 260 266 270 267 257 255 260 262 261 260 260 258 255 254 253 251 250 251 251 251 251 246 245 243 247 248 248 249 249 246 243 240 243 241 242 246 247
249 252 254 258 262 261 259 264 263 258 256 258 261 264 263 263 264 260 258 258 255 251 251 252 254 257 256 249 249 246 246 248 249 247 247 248 248 239 238 243 246 250 251
258 261 262 262 261 259 256 255 257 257 255 258 262 264 264 265 264 261 261 260 256 254 252 253 253 255 258 249 248 248 248 249 251 249 246 245 248 243 234 240 246 251 254
266 266 266 263 257 255 247 249 257 259 259 261 264 265 263 262 263 264 264 260 256 256 257 256 255 254 259 254 249 245 249 253 255 253 248 243 245 246 237 239 243 248 252
272 268 263 258 257 254 244 253 260 262 266 266 265 264 261 261 264 266 261 257 255 257 257 259 259 255 256 255 251 248 246 251 256 255 254 247 239 242 241 242 246 247 251
274 269 264 264 263 248 243 254 261 266 265 261 262 265 265 264 260 259 259 254 252 255 258 260 264 260 254 251 252 250 250 252 253 255 256 250 239 242 244 243 242 243 244
264 262 260 269 268 252 244 254 264 266 259 257 260 265 266 261 253 250 252 252 250 252 259 260 264 268 264 257 254 255 256 253 253 256 254 252 246 247 248 244 243 240 237
253 254 258 263 268 260 252 255 264 260 252 256 262 263 262 263 257 250 244 245 248 251 255 259 263 268 267 263 258 257 258 256 255 257 250 246 245 240 241 243 240 236 236
258 252 252 259 266 266 261 260 260 249 249 254 256 257 256 259 261 257 252 250 250 249 254 257 258 262 267 262 260 264 263 260 257 256 247 242 240 237 234 231 231 229 229
257 254 255 257 262 263 262 261 254 242 244 252 255 255 256 258 260 265 269 247 249 259 256 258 260 261 262 270 267 265 264 263 259 253 244 240 238 239 238 234 230 227 227
Height
1514 1515 1517 1518 1519 1520 1522 1523 1524 1525 1525 1526 1527 1527 1527 1528 1527 1527 1527 1527 1527 1527 1526 1526 1525 1524 1524 1523 1522 1522 1521 1520 1519 1518 1518 1516 1515 1515 1514 1513 1513 1512 1511
1514 1515 1516 1517 1519 1520 1521 1522 1523 1524 1525 1526 1527 1527 1527 1527 1527 1526 1526 1526 1526 1525 1524 1524 1523 1523 1522 1521 1520 1520 1519 1518 1517 1517 1517 1517 1516 1513 1512 1511 1510 1510 1509
1513 1515 1516 1517 1518 1519 1521 1521 1522 1523 1524 1525 1525 1526 1526 1526 1526 1525 1525 1525 1524 1524 1523 1522 1522 1521 1521 1520 1519 1518 1517 1516 1516 1515 1516 1516 1515 1513 1511 1509 1508 1508 1507
1513 1514 1515 1516 1517 1519 1520 1521 1522 1523 1523 1524 1524 1525 1525 1525 1525 1524 1523 1523 1522 1521 1521 1520 1520 1519 1518 1518 1517 1516 1515 1515 1514 1513 1513 1513 1512 1512 1510 1508 1507 1505 1504
1512 1513 1514 1515 1517 1518 1519 1520 1521 1522 1522 1523 1523 1523 1524 1523 1523 1522 1521 1521 1520 1520 1519 1518 1518 1517 1516 1515 1515 1514 1513 1512 1512 1511 1510 1510 1509 1509 1508 1507 1505 1503 1501
1510 1511 1513 1514 1516 1517 1518 1519 1520 1521 1521 1521 1521 1522 1522 1521 1521 1521 1520 1519 1518 1518 1517 1516 1516 1515 1514 1513 1512 1511 1510 1510 1509 1508 1507 1507 1507 1506 1505 1504 1502 1500 1498
1508 1509 1511 1512 1514 1515 1517 1518 1518 1519 1519 1519 1520 1520 1520 1519 1519 1519 1518 1517 1517 1516 1515 1514 1513 1512 1511 1511 1510 1509 1508 1507 1506 1505 1505 1504 1504 1503 1502 1501 1500 1498 1496
1506 1507 1509 1510 1512 1513 1515 1516 1516 1517 1517 1517 1517 1517 1517 1517 1516 1516 1515 1515 1514 1514 1513 1512 1511 1510 1509 1508 1507 1506 1505 1504 1503 1502 1502 1501 1500 1500 1499 1498 1497 1495 1494
1504 1505 1507 1508 1510 1511 1512 1513 1514 1514 1514 1514 1514 1514 1514 1514 1513 1513 1513 1512 1512 1511 1510 1509 1508 1507 1506 1506 1505 1504 1502 1501 1501 1500 1499 1498 1497 1496 1496 1495 1494 1494 1492
1503 1504 1505 1506 1508 1509 1510 1511 1511 1511 1511 1511 1511 1511 1511 1511 1510 1510 1510 1509 1509 1508 1507 1506 1505 1504 1503 1502 1501 1500 1499 1498 1497 1496 1495 1494 1494 1493 1492 1491 1490 1490 1489
1503 1503 1504 1505 1506 1507 1507 1508 1508 1508 1508 1508 1508 1508 1508 1508 1507 1507 1506 1506 1505 1504 1503 1503 1502 1501 1500 1499 1498 1497 1496 1495 1494 1493 1492 1491 1490 1489 1488 1487 1486 1485 1484
1502 1502 1503 1503 1504 1505 1505 1505 1505 1505 1505 1505 1505 1505 1504 1504 1503 1503 1503 1502 1501 1501 1500 1499 1498 1497 1496 1495 1494 1493 1492 1491 1490 1489 1488 1487 1486 1485 1484 1483 1482 1481 1480
1501 1501 1501 1502 1502 1502 1503 1503 1502 1502 1502 1502 1501 1501 1501 1500 1500 1499 1499 1498 1497 1497 1496 1495 1494 1493 1492 1491 1490 1489 1488 1487 1486 1485 1484 1483 1482 1481 1480 1479 1478 1477 1476
1499 1500 1500 1500 1500 1500 1500 1500 1499 1499 1499 1498 1498 1497 1497 1496 1496 1495 1495 1494 1493 1492 1492 1491 1490 1489 1488 1487 1486 1485 1484 1483 1482 1481 1480 1479 1478 1477 1476 1475 1473 1472 1471
1497 1497 1497 1497 1497 1497 1497 1497 1496 1496 1495 1495 1494 1494 1493 1492 1491 1491 1490 1489 1489 1488 1487 1486 1485 1484 1483 1482 1481 1480 1479 1478 1477 1476 1475 1474 1473 1472 1471 1470 1469 1468 1467
1494 1494 1494 1494 1494 1494 1493 1493 1492 1492 1491 1491 1490 1489 1488 1488 1487 1486 1485 1485 1484 1483 1482 1481 1480 1479 1478 1477 1476 1475 1474 1473 1472 1471 1470 1469 1468 1467 1466 1465 1464 1463 1462
1490 1490 1490 1491 1490 1490 1489 1489 1489 1488 1487 1486 1486 1485 1484 1483 1483 1482 1481 1480 1479 1478 1477 1477 1476 1474 1473 1472 1471 1470 1469 1468 1467 1466 1465 1464 1463 1462 1461 1460 1459 1458 1457
1487 1487 1487 1487 1486 1486 1485 1485 1484 1484 1483 1482 1481 1481 1480 1479 1478 1477 1476 1475 1475 1474 1473 1472 1471 1469 1468 1467 1466 1465 1464 1462 1461 1460 1459 1459 1457 1457 1456 1455 1454 1453 1452
1483 1483 1483 1483 1482 1482 1481 1481 1480 1479 1479 1478 1477 1477 1476 1475 1474 1473 1472 1471 1470 1469 1468 1467 1466 1465 1464 1463 1461 1460 1458 1457 1456 1455 1454 1453 1452 1451 1451 1450 1448 1448 1447
1480 1479 1479 1479 1478 1478 1477 1477 1476 1475 1475 1474 1473 1472 1471 1470 1469 1468 1467 1466 1465 1464 1463 1462 1461 1460 1459 1458 1456 1455 1453 1452 1450 1449 1448 1448 1447 1446 1445 1444 1443 1442 1442
1476 1476 1475 1475 1474 1474 1473 1473 1472 1471 1471 1470 1469 1468 1467 1466 1465 1464 1463 1461 1460 1459 1458 1457 1456 1454 1453 1452 1451 1450 1448 1447 1445 1444 1443 1442 1441 1440 1440 1439 1438 1437 1437
1473 1472 1471 1471 1470 1469 1469 1468 1468 1467 1467 1466 1465 1464 1463 1462 1460 1459 1458 1457 1455 1454 1453 1451 1450 1449 1448 1447 1446 1445 1443 1442 1440 1438 1437 1436 1436 1435 1434 1434 1433 1433 1432
1469 1468 1467 1466 1466 1465 1465 1464 1464 1463 1462 1461 1460 1460 1459 1457 1456 1454 1453 1452 1450 1449 1447 1446 1444 1443 1442 1441 1440 1439 1437 1436 1435 1433 1432 1431 1430 1430 1429 1428 1428 1427 1427
1465 1464 1463 1462 1461 1461 1460 1460 1459 1458 1457 1457 1456 1455 1454 1452 1451 1450 1448 1447 1445 1444 1442 1441 1439 1437 1436 1435 1434 1433 1432 1430 1429 1428 1426 1426 1425 1424 1423 1423 1423 1422 1422
1461 1460 1459 1458 1457 1456 1455 1455 1454 1453 1452 1452 1451 1450 1449 1447 1446 1444 1443 1441 1440 1439 1437 1435 1434 1432 1430 1430 1429 1427 1426 1425 1424 1422 1421 1420 1419 1418 1418 1417 1417 1417 1416
1455 1454 1453 1453 1452 1451 1450 1450 1449 1448 1447 1446 1446 1444 1443 1442 1440 1439 1437 1436 1435 1433 1432 1430 1429 1426 1425 1424 1423 1421 1420 1419 1418 1417 1415 1414 1414 1413 1412 1412 1412 1412 1411